Weather History for KCKP - February, 2013

Change the Weather History Date:

Sunday, February 24, 2013

  Actual Average Record
Temperature  
Mean Temperature 18 °F -  
Max Temperature 31 °F - - ()
Min Temperature 6 °F - - ()
Degree Days  
Heating Degree Days 46    
Moisture  
Dew Point 16 °F    
Average Humidity 86    
Maximum Humidity 92    
Minimum Humidity 79    
Precipitation  
Precipitation 0.00 in - - ()
Sea Level Pressure  
Sea Level Pressure 29.98 in    
Wind  
Wind Speed 3 mph (NE)    
Max Wind Speed 6 mph    
Max Gust Speed -    
Visibility 5 miles    
Events      
T = Trace of Precipitation, MM = Missing Value Source: NWS Daily Summary

Daily Weather History Graph

Daily Weather History Graph

Search for Another Location

Airport or City:

Trip Planner

Search our weather history database for the weather conditions in past years. The results will help you decide how hot, cold, wet, or windy it might be!

Date:

Astronomy

Feb. 24, 2013 Rise Set
Actual Time 7:05 AM CST 6:05 PM CST
Civil Twilight 6:36 AM CST 6:34 PM CST
Nautical Twilight 6:04 AM CST 7:07 PM CST
Astronomical Twilight 5:31 AM CST 7:39 PM CST
Moon 5:18 PM CST 6:03 AM CST
Length of Visible Light 11h 57m
Length of Day
11h 00m
Waxing Gibbous, 99% of the Moon is Illuminated
Feb 24
Waxing Gibbous
Feb 25
Full
Mar 4
Last Quarter
Mar 11
New
Mar 19
First Quarter

Hourly Weather History & Observations

Time (CST) Temp. Windchill Dew Point Humidity Pressure Visibility Wind Dir Wind Speed Gust Speed Precip Events Conditions
12:15 AM 9.0 °F 2.4 °F 7.0 °F 92% 29.88 in 5.0 mi NE 3.5 mph - N/A   Clear
12:35 AM 9.5 °F 1.2 °F 7.5 °F 92% 29.89 in 5.0 mi NE 4.6 mph - N/A   Clear
12:55 AM 9.5 °F 3.0 °F 7.3 °F 91% 29.89 in 5.0 mi NE 3.5 mph - N/A   Clear
1:15 AM 9.5 °F 1.2 °F 7.5 °F 92% 29.89 in 7.0 mi NE 4.6 mph - N/A   Clear
1:35 AM 9.1 °F -0.7 °F 6.8 °F 90% 29.89 in 7.0 mi NNE 5.8 mph - N/A   Clear
1:55 AM 8.2 °F 1.6 °F 5.7 °F 89% 29.90 in 7.0 mi NNE 3.5 mph - N/A   Clear
2:15 AM 8.4 °F - 5.9 °F 89% 29.91 in 7.0 mi Calm Calm - N/A   Clear
2:35 AM 8.8 °F -1.1 °F 6.3 °F 89% 29.90 in 7.0 mi NNE 5.8 mph - N/A   Clear
2:55 AM 8.2 °F -0.3 °F 5.7 °F 89% 29.91 in 7.0 mi NNE 4.6 mph - N/A   Clear
3:15 AM 8.2 °F -1.8 °F 5.7 °F 89% 29.90 in 7.0 mi NNE 5.8 mph - N/A   Clear
3:35 AM 7.7 °F - 5.4 °F 90% 29.90 in 7.0 mi Calm Calm - N/A   Clear
3:55 AM 8.2 °F - 5.7 °F 89% 29.90 in 7.0 mi Calm Calm - N/A   Clear
4:15 AM 8.2 °F 1.6 °F 5.9 °F 90% 29.90 in 7.0 mi NNE 3.5 mph - N/A   Clear
4:35 AM 8.1 °F 1.4 °F 5.5 °F 89% 29.91 in 7.0 mi NNE 3.5 mph - N/A   Clear
4:55 AM 7.9 °F - 5.5 °F 90% 29.92 in 7.0 mi Calm Calm - N/A   Scattered Clouds
5:15 AM 8.6 °F 0.1 °F 5.9 °F 89% 29.92 in 7.0 mi NE 4.6 mph - N/A   Scattered Clouds
5:35 AM 8.4 °F 1.8 °F 5.9 °F 89% 29.93 in 7.0 mi NNE 3.5 mph - N/A   Clear
5:55 AM 7.7 °F 1.0 °F 5.0 °F 89% 29.94 in 7.0 mi NNE 3.5 mph - N/A   Clear
6:15 AM 7.3 °F -2.8 °F 4.5 °F 88% 29.94 in 7.0 mi NE 5.8 mph - N/A   Clear
6:35 AM 6.6 °F -2.2 °F 3.7 °F 88% 29.94 in 7.0 mi NNE 4.6 mph - N/A   Clear
6:55 AM 6.8 °F - 4.1 °F 89% 29.94 in 7.0 mi Calm Calm - N/A   Clear
7:15 AM 7.3 °F - 4.6 °F 89% 29.95 in 5.0 mi Calm Calm - N/A   Clear
7:35 AM 7.7 °F 1.0 °F 5.0 °F 89% 29.96 in 5.0 mi NNE 3.5 mph - N/A   Scattered Clouds
7:55 AM 8.6 °F 2.0 °F 5.9 °F 89% 29.96 in 5.0 mi NNE 3.5 mph - N/A   Scattered Clouds
8:15 AM 9.1 °F - 6.6 °F 89% 29.96 in 5.0 mi Calm Calm - N/A   Clear
8:35 AM 10.2 °F - 7.7 °F 90% 29.97 in 5.0 mi Calm Calm - N/A   Clear
8:55 AM 11.3 °F - 8.6 °F 89% 29.98 in 5.0 mi Calm Calm - N/A   Scattered Clouds
9:15 AM 12.4 °F - 10.2 °F 91% 29.99 in 5.0 mi Calm Calm - N/A   Scattered Clouds
9:35 AM 15.4 °F - 13.3 °F 91% 30.00 in 4.0 mi Calm Calm - N/A   Clear
9:55 AM 16.9 °F 11.5 °F 14.4 °F 90% 30.00 in 4.0 mi ENE 3.5 mph - N/A   Mostly Cloudy
10:15 AM 18.5 °F 11.7 °F 16.0 °F 90% 29.99 in 4.0 mi NNE 4.6 mph - N/A   Overcast
10:35 AM 19.8 °F 13.2 °F 15.8 °F 85% 30.00 in 5.0 mi NNE 4.6 mph - N/A   Overcast
10:55 AM 20.5 °F - 15.4 °F 81% 30.01 in 5.0 mi Calm Calm - N/A   Haze
11:15 AM 21.9 °F - 16.3 °F 79% 30.02 in 5.0 mi Calm Calm - N/A   Haze
11:35 AM 22.6 °F 18.0 °F 17.4 °F 80% 30.02 in 4.0 mi East 3.5 mph - N/A   Haze
11:55 AM 23.0 °F 18.4 °F 18.3 °F 82% 30.02 in 4.0 mi East 3.5 mph - N/A   Haze
12:15 PM 23.2 °F - 18.9 °F 84% 30.01 in 4.0 mi Calm Calm - N/A   Overcast
12:35 PM 25.0 °F 20.7 °F 19.9 °F 81% 30.01 in 4.0 mi ESE 3.5 mph - N/A   Haze
12:55 PM 26.4 °F 22.4 °F 21.0 °F 80% 30.00 in 4.0 mi SE 3.5 mph - N/A   Haze
1:15 PM 27.1 °F 21.8 °F 21.4 °F 79% 29.99 in 4.0 mi East 4.6 mph - N/A   Haze
1:35 PM 27.5 °F 22.2 °F 21.7 °F 79% 29.99 in 4.0 mi East 4.6 mph - N/A   Haze
1:55 PM 28.0 °F 21.7 °F 22.3 °F 79% 29.99 in 4.0 mi East 5.8 mph - N/A   Haze
2:15 PM 28.6 °F 23.5 °F 23.2 °F 80% 29.99 in 4.0 mi East 4.6 mph - N/A   Haze
2:35 PM 29.3 °F 25.6 °F 23.7 °F 80% 29.98 in 4.0 mi East 3.5 mph - N/A   Haze
2:55 PM 29.8 °F - 24.3 °F 80% 29.98 in 4.0 mi Calm Calm - N/A   Haze
3:15 PM 30.9 °F 26.2 °F 25.3 °F 80% 29.98 in 4.0 mi SE 4.6 mph - N/A   Haze
3:35 PM 30.6 °F 25.8 °F 25.5 °F 82% 29.98 in 4.0 mi ESE 4.6 mph - N/A   Haze
3:55 PM 30.9 °F 27.5 °F 26.1 °F 82% 29.98 in 4.0 mi ESE 3.5 mph - N/A   Haze
4:15 PM 31.1 °F 27.7 °F 26.2 °F 82% 29.99 in 4.0 mi East 3.5 mph - N/A   Haze
4:35 PM 30.9 °F 27.5 °F 26.4 °F 83% 29.99 in 4.0 mi ENE 3.5 mph - N/A   Haze
4:55 PM 30.7 °F 27.3 °F 26.1 °F 83% 29.99 in 4.0 mi ENE 3.5 mph - N/A   Haze
5:15 PM 30.2 °F 25.4 °F 25.7 °F 83% 29.99 in 4.0 mi ENE 4.6 mph - N/A   Overcast
5:35 PM 29.7 °F - 25.5 °F 85% 30.00 in 4.0 mi Calm Calm - N/A   Overcast
5:55 PM 28.9 °F 25.2 °F 24.8 °F 84% 30.01 in 4.0 mi NNE 3.5 mph - N/A   Overcast
6:15 PM 28.4 °F 24.6 °F 24.8 °F 86% 30.01 in 4.0 mi NE 3.5 mph - N/A   Overcast
6:35 PM 28.4 °F 24.6 °F 24.6 °F 86% 30.02 in 5.0 mi NE 3.5 mph - N/A   Overcast
6:55 PM 28.0 °F 22.8 °F 24.3 °F 86% 30.02 in 5.0 mi NNE 4.6 mph - N/A   Overcast
7:15 PM 27.9 °F 22.6 °F 24.3 °F 86% 30.03 in 5.0 mi North 4.6 mph - N/A   Overcast
7:35 PM 27.9 °F - 24.1 °F 86% 30.03 in 5.0 mi Calm Calm - N/A   Overcast
7:55 PM 27.9 °F - 24.3 °F 86% 30.04 in 5.0 mi Calm Calm - N/A   Overcast
8:15 PM 27.7 °F - 24.1 °F 86% 30.04 in 5.0 mi Calm Calm - N/A   Overcast
8:35 PM 27.9 °F - 24.3 °F 86% 30.04 in 5.0 mi Calm Calm - N/A   Overcast
8:55 PM 27.9 °F 24.0 °F 24.3 °F 86% 30.05 in 5.0 mi North 3.5 mph - N/A   Overcast
9:15 PM 27.9 °F - 23.9 °F 85% 30.06 in 5.0 mi Calm Calm - N/A   Overcast
9:35 PM 28.0 °F - 24.1 °F 85% 30.07 in 5.0 mi Calm Calm - N/A   Overcast
9:55 PM 28.0 °F - 23.9 °F 84% 30.07 in 5.0 mi Calm Calm - N/A   Overcast
10:15 PM 27.9 °F - 24.4 °F 87% 30.06 in 5.0 mi Calm Calm - N/A   Overcast
10:35 PM 27.9 °F - 23.9 °F 85% 30.07 in 5.0 mi Calm Calm - N/A   Overcast
10:55 PM 27.9 °F - 24.3 °F 86% 30.07 in 5.0 mi Calm Calm - N/A   Overcast
11:15 PM 28.0 °F - 24.4 °F 86% 30.07 in 5.0 mi Calm Calm - N/A   Overcast
11:35 PM 27.9 °F - 24.6 °F 88% 30.07 in 5.0 mi Calm Calm - N/A   Overcast
11:55 PM 27.3 °F - 24.6 °F 90% 30.07 in 4.0 mi Calm Calm - N/A   Overcast